Retour au catalogue

STARLINK-32694

ActifCommunicationsVLEO
NORAD 62494·PAYLOAD·🇺🇸 United States

Lancé Jan 6, 2025 depuis Cape Canaveral Space Force Station

Loading…

Prochains Passages (prochaines 24 heures)

TLE

FraisSource: CelesTrak SupGP

Époque: Sep 14, 2026, 20:47 UTC

1 62494C 25003H   26257.86645833 -.00019813  00000+0 -71784-3 0  2570
2 62494  43.0034 300.3283 0001495 271.8747 203.5908 15.27578576    16

Suivez STARLINK-32694 en temps réel avec AllMySat

Download on the App Store